Starlink 32289

operational
NORAD ID: 60737 Int'l Des: 2024-152 Owner: SPXS Country: US Constellation: starlink
LEOCIRCULAR

关于 Starlink 32289

正在加载描述...

实时位置

正在加载3D地球...

即将过境

高度历史

Altitude vs Time

uPlot chart will show altitude changes over time

两行轨道根数

1 60737U 24152T 25260.25477624 -.00001753 00000-0 -47105-4 0 9998
2 60737 53.1636 354.2685 0001164 106.2363 253.8766 15.30187260 60292
Epoch: Sep 17, 2025 • Age: 17 hours

当前状态

高度 479.4 km
速度 7.63 km/s
星下点 -15.34°S, 154.1°W
发射日期 Aug 28, 2024
运行时间 1 years
类型 internet

技术详情

分类 Payload
质量 730.00 kg
干质量 700.00 kg
总质量 730.00 kg
长度 0.30 m
直径 4.10 m
跨度 29.00 m
形状 Box + pan
制造商 SPXS
平台类型 Starlink V2M
阶段状态 In Orbit
所有者/国家 SPXS/US

大型星座

Loading constellations...